| time (UTC) | temp F | wind direction | speed knots | gust knots | rain 1hr in | rain 24hr in | rain mn in | humidity % | barometer mb |
| 20260904130003 | 84 | 46 | 2.6 | 8.7 | 0.00 | 0.46 | 0.00 | 81 | 1012.4 |
| 20260904125503 | 84 | 49 | 2.6 | 8.7 | 0.00 | 0.46 | 0.00 | 81 | 1012.3 |
| 20260904125004 | 84 | 66 | 4.3 | 8.7 | 0.00 | 0.46 | 0.00 | 81 | 1012.2 |
| 20260904124503 | 84 | 66 | 4.3 | 8.7 | 0.00 | 0.46 | 0.00 | 81 | 1012.3 |
| 20260904124001 | 83 | 30 | 2.6 | 6.1 | 0.00 | 0.46 | 0.00 | 81 | 1012.2 |
| 20260904123505 | 84 | 50 | 2.6 | 6.1 | 0.00 | 0.46 | 0.00 | 81 | 1012.1 |
| 20260904123003 | 84 | 39 | 3.5 | 7.0 | 0.00 | 0.46 | 0.00 | 81 | 1012.1 |
| 20260904122506 | 84 | 45 | 1.7 | 6.1 | 0.00 | 0.46 | 0.00 | 81 | 1012.1 |
| 20260904122002 | 84 | 61 | 2.6 | 5.2 | 0.00 | 0.46 | 0.00 | 81 | 1012.1 |
| 20260904121502 | 83 | 34 | 2.6 | 5.2 | 0.00 | 0.46 | 0.00 | 81 | 1012.0 |
| 20260904121002 | 83 | 57 | 1.7 | 7.0 | 0.00 | 0.46 | 0.00 | 80 | 1012.0 |
| 20260904120501 | 84 | 22 | 1.7 | 7.0 | 0.00 | 0.46 | 0.00 | 80 | 1012.1 |
| 20260904120001 | 84 | 50 | 3.5 | 7.0 | 0.00 | 0.46 | 0.00 | 80 | 1012.0 |
| 20260904115501 | 84 | 65 | 2.6 | 6.1 | 0.00 | 0.46 | 0.00 | 80 | 1012.0 |
| 20260904115103 | 84 | 26 | 2.6 | 6.1 | 0.00 | 0.46 | 0.00 | 80 | 1012.0 |
| 20260904115001 | 84 | 39 | 2.6 | 6.1 | 0.00 | 0.46 | 0.00 | 80 | 1012.0 |
| 20260904114601 | 84 | 51 | 2.6 | 6.1 | 0.00 | 0.46 | 0.00 | 80 | 1012.0 |
| 20260904114059 | 84 | 53 | 2.6 | 6.1 | 0.00 | 0.46 | 0.00 | 80 | 1011.9 |
| 20260904113601 | 84 | 39 | 3.5 | 8.7 | 0.00 | 0.46 | 0.00 | 80 | 1011.9 |
| 20260904113101 | 84 | 55 | 4.3 | 8.7 | 0.00 | 0.46 | 0.00 | 80 | 1011.9 |
| 20260904112558 | 84 | 38 | 3.5 | 7.8 | 0.00 | 0.46 | 0.00 | 80 | 1012.0 |
| 20260904112101 | 84 | 61 | 1.7 | 8.7 | 0.00 | 0.46 | 0.00 | 80 | 1012.0 |
| 20260904111558 | 84 | 53 | 4.3 | 9.6 | 0.00 | 0.46 | 0.00 | 80 | 1012.0 |
| 20260904111058 | 84 | 57 | 4.3 | 9.6 | 0.00 | 0.46 | 0.00 | 80 | 1012.0 |
| 20260904110558 | 84 | 68 | 4.3 | 9.6 | 0.00 | 0.46 | 0.00 | 80 | 1011.9 |
| 20260904110058 | 84 | 55 | 5.2 | 8.7 | 0.00 | 1.87 | 0.00 | 80 | 1011.9 |
| 20260904105558 | 84 | 32 | 3.5 | 7.8 | 0.00 | 1.87 | 0.00 | 80 | 1012.0 |
| 20260904105057 | 84 | 38 | 3.5 | 8.7 | 0.00 | 1.87 | 0.00 | 80 | 1011.9 |
| 20260904104558 | 84 | 39 | 4.3 | 7.8 | 0.00 | 1.87 | 0.00 | 80 | 1011.9 |
| 20260904104056 | 84 | 57 | 3.5 | 7.8 | 0.00 | 1.87 | 0.00 | 80 | 1011.9 |
| 20260904103557 | 84 | 46 | 2.6 | 7.8 | 0.00 | 1.87 | 0.00 | 80 | 1011.9 |
| 20260904103056 | 84 | 49 | 4.3 | 7.8 | 0.00 | 1.87 | 0.00 | 80 | 1011.9 |
| 20260904102556 | 84 | 32 | 4.3 | 8.7 | 0.00 | 1.87 | 0.00 | 80 | 1012.0 |
| 20260904102055 | 84 | 46 | 4.3 | 9.6 | 0.00 | 1.87 | 0.00 | 80 | 1012.0 |
| 20260904101556 | 84 | 40 | 4.3 | 9.6 | 0.00 | 1.87 | 0.00 | 79 | 1011.9 |
| 20260904101055 | 84 | 38 | 5.2 | 10.4 | 0.00 | 1.87 | 0.00 | 79 | 1012.0 |
| 20260904100554 | 84 | 57 | 5.2 | 10.4 | 0.00 | 1.87 | 0.00 | 79 | 1012.0 |
| 20260904095555 | 84 | 36 | 4.3 | 9.6 | 0.00 | 1.87 | 0.00 | 79 | 1012.1 |
| 20260904095052 | 84 | 63 | 4.3 | 9.6 | 0.00 | 1.87 | 0.00 | 79 | 1012.2 |
| 20260904094552 | 84 | 33 | 3.5 | 7.8 | 0.00 | 1.87 | 0.00 | 79 | 1012.2 |
| 20260904094052 | 84 | 16 | 3.5 | 7.8 | 0.00 | 1.87 | 0.00 | 79 | 1012.2 |
| 20260904093556 | 84 | 67 | 3.5 | 8.7 | 0.00 | 1.87 | 0.00 | 79 | 1012.1 |
| 20260904093055 | 84 | 36 | 3.5 | 8.7 | 0.00 | 1.87 | 0.00 | 79 | 1012.2 |
| 20260904092551 | 84 | 55 | 4.3 | 8.7 | 0.00 | 1.87 | 0.00 | 79 | 1012.1 |
| 20260904092051 | 84 | 30 | 3.5 | 8.7 | 0.00 | 1.87 | 0.00 | 79 | 1012.2 |
| 20260904091551 | 84 | 26 | 3.5 | 7.8 | 0.00 | 1.87 | 0.00 | 79 | 1012.2 |
| 20260904091051 | 84 | 29 | 2.6 | 6.1 | 0.00 | 1.87 | 0.00 | 79 | 1012.2 |
| 20260904090550 | 84 | 51 | 2.6 | 7.0 | 0.00 | 1.87 | 0.00 | 79 | 1012.2 |
| 20260904090053 | 84 | 59 | 1.7 | 9.6 | 0.00 | 1.87 | 0.00 | 79 | 1012.3 |
| 20260904085550 | 84 | 49 | 2.6 | 9.6 | 0.00 | 1.87 | 0.00 | 79 | 1012.3 |
| 20260904085053 | 84 | 71 | 4.3 | 7.8 | 0.00 | 1.87 | 0.00 | 79 | 1012.3 |
| 20260904084549 | 84 | 50 | 2.6 | 6.1 | 0.00 | 1.87 | 0.00 | 79 | 1012.4 |
| 20260904084048 | 84 | 42 | 2.6 | 5.2 | 0.00 | 1.87 | 0.00 | 79 | 1012.3 |
| 20260904083547 | 84 | 44 | 1.7 | 5.2 | 0.00 | 1.87 | 0.00 | 79 | 1012.5 |
| 20260904083048 | 84 | 38 | 2.6 | 5.2 | 0.00 | 1.87 | 0.00 | 79 | 1012.4 |
| 20260904082551 | 84 | 37 | 1.7 | 5.2 | 0.00 | 1.87 | 0.00 | 79 | 1012.4 |
| 20260904082046 | 84 | 54 | 3.5 | 5.2 | 0.00 | 1.87 | 0.00 | 79 | 1012.4 |
| 20260904081549 | 84 | 44 | 2.6 | 5.2 | 0.00 | 1.87 | 0.00 | 79 | 1012.5 |
| 20260904081047 | 84 | 40 | 2.6 | 6.1 | 0.00 | 1.87 | 0.00 | 79 | 1012.6 |
| 20260904080546 | 84 | 39 | 2.6 | 6.1 | 0.00 | 1.87 | 0.00 | 79 | 1012.5 |
| 20260904080051 | 84 | 44 | 2.6 | 6.1 | 0.00 | 1.87 | 0.00 | 79 | 1012.6 |
| 20260904075544 | 84 | 73 | 2.6 | 6.1 | 0.00 | 1.87 | 0.00 | 79 | 1012.7 |
| 20260904075044 | 84 | 35 | 1.7 | 5.2 | 0.00 | 1.87 | 0.00 | 79 | 1012.6 |
| 20260904074543 | 84 | 63 | 3.5 | 5.2 | 0.00 | 1.87 | 0.00 | 79 | 1012.7 |
| 20260904074043 | 84 | 38 | 2.6 | 7.0 | 0.00 | 1.87 | 0.00 | 78 | 1012.8 |
| 20260904073542 | 84 | 61 | 2.6 | 7.8 | 0.00 | 1.87 | 0.00 | 78 | 1012.8 |
| 20260904073049 | 84 | 32 | 2.6 | 7.8 | 0.00 | 1.87 | 0.00 | 78 | 1013.0 |
| 20260904072541 | 84 | 51 | 3.5 | 7.0 | 0.00 | 1.87 | 0.00 | 78 | 1013.0 |
| 20260904072041 | 84 | 38 | 2.6 | 5.2 | 0.00 | 1.87 | 0.00 | 78 | 1012.9 |
| 20260904071541 | 84 | 34 | 2.6 | 6.1 | 0.00 | 1.87 | 0.00 | 78 | 1012.9 |
| 20260904071044 | 84 | 30 | 3.5 | 7.8 | 0.00 | 1.87 | 0.00 | 78 | 1013.0 |
| 20260904070540 | 84 | 53 | 2.6 | 8.7 | 0.00 | 1.87 | 0.00 | 78 | 1013.1 |
| 20260904070040 | 84 | 28 | 4.3 | 8.7 | 0.00 | 1.87 | 1.87 | 78 | 1013.1 |
| 20260904065538 | 84 | 58 | 3.5 | 8.7 | 0.00 | 1.87 | 1.87 | 78 | 1013.1 |
| 20260904065038 | 84 | 63 | 4.3 | 7.8 | 0.00 | 1.87 | 1.87 | 78 | 1013.1 |
| 20260904064538 | 84 | 40 | 2.6 | 7.0 | 0.00 | 1.87 | 1.87 | 78 | 1013.3 |
| 20260904064041 | 84 | 73 | 2.6 | 7.0 | 0.00 | 1.87 | 1.87 | 78 | 1013.3 |
| 20260904063537 | 84 | 57 | 2.6 | 5.2 | 0.00 | 1.87 | 1.87 | 78 | 1013.4 |
| 20260904063039 | 85 | 51 | 1.7 | 5.2 | 0.00 | 1.87 | 1.87 | 78 | 1013.4 |
| 20260904062537 | 85 | 51 | 1.7 | 5.2 | 0.00 | 1.87 | 1.87 | 78 | 1013.5 |
| 20260904062036 | 85 | 78 | 1.7 | 6.1 | 0.00 | 1.87 | 1.87 | 78 | 1013.5 |
| 20260904061539 | 84 | 61 | 2.6 | 6.1 | 0.00 | 1.87 | 1.87 | 78 | 1013.5 |
| 20260904061037 | 84 | 61 | 3.5 | 7.0 | 0.00 | 1.87 | 1.87 | 78 | 1013.6 |
| 20260904060536 | 84 | 57 | 2.6 | 6.1 | 0.00 | 1.87 | 1.87 | 78 | 1013.6 |
| 20260904060036 | 84 | 51 | 2.6 | 6.1 | 0.00 | 1.87 | 1.87 | 78 | 1013.7 |
| 20260904055535 | 84 | 63 | 2.6 | 5.2 | 0.00 | 1.87 | 1.87 | 78 | 1013.9 |
| 20260904055036 | 84 | 65 | 0.9 | 6.1 | 0.00 | 1.87 | 1.87 | 78 | 1013.9 |
| 20260904054537 | 85 | 46 | 3.5 | 7.0 | 0.00 | 1.87 | 1.87 | 79 | 1014.0 |
| 20260904054034 | 85 | 64 | 2.6 | 7.0 | 0.00 | 1.87 | 1.87 | 79 | 1014.0 |
| 20260904053535 | 85 | 59 | 1.7 | 6.1 | 0.00 | 1.87 | 1.87 | 79 | 1014.0 |
| 20260904053036 | 84 | 68 | 2.6 | 6.1 | 0.00 | 1.87 | 1.87 | 79 | 1014.1 |
| 20260904052537 | 85 | 79 | 1.7 | 4.3 | 0.00 | 1.87 | 1.87 | 78 | 1014.2 |
| 20260904052035 | 85 | 44 | 1.7 | 6.1 | 0.00 | 1.87 | 1.87 | 78 | 1014.2 |
| 20260904051536 | 85 | 69 | 1.7 | 6.1 | 0.00 | 1.87 | 1.87 | 78 | 1014.2 |
| 20260904051033 | 85 | 83 | 0.9 | 5.2 | 0.00 | 1.87 | 1.87 | 78 | 1014.2 |
| 20260904050534 | 85 | 58 | 1.7 | 5.2 | 0.00 | 1.87 | 1.87 | 78 | 1014.2 |
| 20260904050042 | 85 | 67 | 2.6 | 5.2 | 0.00 | 1.87 | 1.87 | 78 | 1014.2 |
| 20260904045533 | 85 | 56 | 1.7 | 4.3 | 0.00 | 1.87 | 1.87 | 78 | 1014.3 |
| 20260904045033 | 85 | 46 | 2.6 | 5.2 | 0.00 | 1.87 | 1.87 | 78 | 1014.2 |
| 20260904044542 | 85 | 55 | 1.7 | 6.1 | 0.00 | 1.87 | 1.87 | 78 | 1014.2 |
| 20260904044033 | 85 | 44 | 2.6 | 5.2 | 0.00 | 1.87 | 1.87 | 78 | 1014.2 |
| 20260904043535 | 85 | 54 | 2.6 | 4.3 | 0.00 | 1.87 | 1.87 | 78 | 1014.1 |
| 20260904043033 | 85 | 65 | 1.7 | 5.2 | 0.00 | 1.87 | 1.87 | 77 | 1014.1 |
| 20260904042532 | 85 | 75 | 2.6 | 5.2 | 0.00 | 1.87 | 1.87 | 77 | 1014.0 |
| 20260904042033 | 85 | 53 | 2.6 | 7.0 | 0.00 | 1.87 | 1.87 | 77 | 1014.0 |
| 20260904041538 | 85 | 62 | 3.5 | 7.0 | 0.00 | 1.87 | 1.87 | 77 | 1013.9 |
| 20260904041032 | 85 | 40 | 1.7 | 5.2 | 0.00 | 1.87 | 1.87 | 77 | 1013.8 |
| 20260904040531 | 85 | 82 | 2.6 | 6.1 | 0.00 | 1.87 | 1.87 | 77 | 1013.6 |
| 20260904040033 | 85 | 33 | 2.6 | 5.2 | 0.00 | 1.87 | 1.87 | 76 | 1013.7 |
| 20260904035532 | 85 | 94 | 2.6 | 6.1 | 0.00 | 1.87 | 1.87 | 76 | 1013.7 |
| 20260904035033 | 85 | 56 | 2.6 | 6.1 | 0.00 | 1.87 | 1.87 | 76 | 1013.5 |
| 20260904034531 | 85 | 53 | 1.7 | 4.3 | 0.00 | 1.87 | 1.87 | 76 | 1013.5 |
| 20260904034033 | 85 | 78 | 1.7 | 7.8 | 0.00 | 1.87 | 1.87 | 75 | 1013.3 |
| 20260904033534 | 85 | 63 | 2.6 | 7.8 | 0.00 | 1.87 | 1.87 | 75 | 1013.3 |
| 20260904033033 | 85 | 103 | 2.6 | 8.7 | 0.00 | 1.87 | 1.87 | 75 | 1013.2 |
| 20260904032529 | 85 | 94 | 3.5 | 8.7 | 0.00 | 1.87 | 1.87 | 76 | 1013.1 |
| 20260904032030 | 85 | 74 | 3.5 | 7.8 | 0.00 | 1.87 | 1.87 | 75 | 1013.2 |
| 20260904031532 | 85 | 65 | 1.7 | 7.0 | 0.00 | 1.87 | 1.87 | 76 | 1013.1 |
| 20260904031030 | 85 | 38 | 2.6 | 6.1 | 0.00 | 1.87 | 1.87 | 76 | 1013.1 |
| 20260904030529 | 85 | 56 | 0.9 | 4.3 | 0.00 | 1.87 | 1.87 | 75 | 1013.0 |
| 20260904030030 | 85 | 62 | 1.7 | 5.2 | 0.00 | 1.87 | 1.87 | 75 | 1012.9 |
| 20260904025529 | 85 | 64 | 2.6 | 7.0 | 0.00 | 1.87 | 1.87 | 75 | 1012.9 |
| 20260904025029 | 85 | 97 | 3.5 | 7.0 | 0.00 | 1.87 | 1.87 | 75 | 1012.7 |
| 20260904024528 | 85 | 74 | 3.5 | 7.0 | 0.00 | 1.87 | 1.87 | 75 | 1012.7 |
| 20260904024028 | 85 | 71 | 1.7 | 3.5 | 0.00 | 1.87 | 1.87 | 74 | 1012.6 |
| 20260904023532 | 85 | 69 | 0.9 | 5.2 | 0.00 | 1.87 | 1.87 | 74 | 1012.5 |
| 20260904023027 | 85 | 71 | 1.7 | 5.2 | 0.00 | 1.87 | 1.87 | 74 | 1012.6 |
| 20260904022528 | 85 | 82 | 3.5 | 5.2 | 0.00 | 1.87 | 1.87 | 74 | 1012.6 |
| 20260904022027 | 85 | 74 | 2.6 | 4.3 | 0.00 | 1.87 | 1.87 | 74 | 1012.7 |
| 20260904021531 | 85 | 74 | 1.7 | 5.2 | 0.00 | 1.87 | 1.87 | 74 | 1012.6 |
| 20260904021028 | 85 | 76 | 2.6 | 5.2 | 0.00 | 1.87 | 1.87 | 73 | 1012.6 |
| 20260904020527 | 85 | 76 | 0.9 | 3.5 | 0.00 | 1.87 | 1.87 | 73 | 1012.6 |
| 20260904020038 | 85 | 76 | 0.9 | 3.5 | 0.00 | 1.87 | 1.87 | 74 | 1012.7 |
| 20260904015526 | 85 | 74 | 0.9 | 3.5 | 0.00 | 1.87 | 1.87 | 74 | 1012.7 |
| 20260904015026 | 86 | 95 | 0.9 | 2.6 | 0.00 | 1.87 | 1.87 | 75 | 1012.7 |
| 20260904014526 | 85 | 96 | 0.0 | 0.0 | 0.00 | 1.87 | 1.87 | 75 | 1012.6 |
| 20260904014025 | 85 | 96 | 0.0 | 0.0 | 0.00 | 1.87 | 1.87 | 76 | 1012.7 |
| 20260904013524 | 85 | 96 | 0.0 | 2.6 | 0.00 | 1.87 | 1.87 | 76 | 1012.6 |
| 20260904013026 | 86 | 96 | 0.0 | 2.6 | 0.00 | 1.87 | 1.87 | 76 | 1012.7 |
| 20260904012525 | 86 | 96 | 0.0 | 3.5 | 0.00 | 1.87 | 1.87 | 76 | 1012.7 |
| 20260904012025 | 86 | 96 | 0.9 | 3.5 | 0.00 | 1.87 | 1.87 | 76 | 1012.7 |
| 20260904011525 | 86 | 95 | 1.7 | 2.6 | 0.00 | 1.87 | 1.87 | 77 | 1012.8 |
| 20260904011025 | 86 | 54 | 0.0 | 2.6 | 0.00 | 1.87 | 1.87 | 77 | 1012.9 |
| 20260904010525 | 86 | 54 | 0.0 | 2.6 | 0.00 | 1.87 | 1.87 | 77 | 1012.9 |
| 20260904010025 | 86 | 54 | 0.9 | 2.6 | 0.00 | 1.87 | 1.87 | 78 | 1012.9 |
| 20260904005524 | 86 | 54 | 0.9 | 1.7 | 0.00 | 1.87 | 1.87 | 78 | 1012.9 |
| 20260904005024 | 85 | 54 | 0.0 | 2.6 | 0.00 | 1.87 | 1.87 | 79 | 1012.7 |
| 20260904004523 | 85 | 54 | 0.9 | 2.6 | 0.00 | 1.87 | 1.87 | 79 | 1012.8 |
| 20260904004024 | 85 | 32 | 0.0 | 2.6 | 0.00 | 1.87 | 1.87 | 79 | 1012.8 |
| 20260904003522 | 85 | 32 | 0.9 | 4.3 | 0.00 | 1.87 | 1.87 | 79 | 1012.8 |
| 20260904003027 | 85 | 32 | 1.7 | 4.3 | 0.00 | 1.87 | 1.87 | 79 | 1012.7 |
| 20260904002524 | 84 | 48 | 2.6 | 3.5 | 0.00 | 1.87 | 1.87 | 79 | 1012.7 |
| 20260904002022 | 84 | 49 | 0.9 | 3.5 | 0.00 | 1.87 | 1.87 | 79 | 1012.7 |
| 20260904001522 | 84 | 39 | 1.7 | 3.5 | 0.00 | 1.87 | 1.87 | 79 | 1012.7 |
| 20260904001025 | 84 | 87 | 0.9 | 5.2 | 0.00 | 1.87 | 1.87 | 79 | 1012.7 |
| 20260904000522 | 84 | 80 | 0.9 | 5.2 | 0.00 | 1.87 | 1.87 | 79 | 1012.6 |
| 20260904000022 | 84 | 50 | 1.7 | 5.2 | 0.00 | 1.87 | 1.87 | 79 | 1012.6 |
| 20260903235522 | 84 | 65 | 2.6 | 5.2 | 0.00 | 1.87 | 1.87 | 79 | 1012.6 |
| 20260903235023 | 84 | 85 | 2.6 | 6.1 | 0.00 | 1.87 | 1.87 | 79 | 1012.4 |
| 20260903234515 | 84 | 149 | 3.5 | 6.1 | 0.00 | 1.87 | 1.87 | 79 | 1012.2 |
| 20260903234015 | 84 | 136 | 3.5 | 6.1 | 0.00 | 1.87 | 1.87 | 78 | 1012.4 |
| 20260903233516 | 84 | 124 | 2.6 | 5.2 | 0.00 | 1.87 | 1.87 | 78 | 1012.4 |
| 20260903233016 | 85 | 101 | 0.9 | 3.5 | 0.00 | 1.87 | 1.87 | 78 | 1012.3 |
| 20260903232515 | 84 | 99 | 0.9 | 6.1 | 0.00 | 1.87 | 1.87 | 78 | 1012.4 |
| 20260903232015 | 84 | 137 | 1.7 | 5.2 | 0.00 | 1.87 | 1.87 | 78 | 1012.4 |
| 20260903231515 | 84 | 96 | 1.7 | 5.2 | 0.00 | 1.87 | 1.87 | 77 | 1012.3 |
| 20260903231013 | 84 | 94 | 1.7 | 5.2 | 0.00 | 1.87 | 1.87 | 77 | 1012.3 |
| 20260903230513 | 84 | 69 | 0.9 | 5.2 | 0.00 | 1.87 | 1.87 | 78 | 1012.3 |
| 20260903230015 | 84 | 134 | 1.7 | 5.2 | 0.00 | 1.88 | 1.87 | 78 | 1012.3 |
| 20260903225513 | 84 | 117 | 0.9 | 3.5 | 0.00 | 1.88 | 1.87 | 78 | 1012.3 |
| 20260903225012 | 84 | 130 | 0.9 | 4.3 | 0.00 | 1.88 | 1.87 | 77 | 1012.4 |
| 20260903224514 | 84 | 78 | 2.6 | 5.2 | 0.00 | 1.88 | 1.87 | 77 | 1012.6 |
| 20260903224013 | 84 | 74 | 1.7 | 5.2 | 0.00 | 1.88 | 1.87 | 77 | 1012.5 |
| 20260903223514 | 84 | 65 | 0.9 | 3.5 | 0.00 | 1.88 | 1.87 | 77 | 1012.5 |
| 20260903223020 | 84 | 65 | 1.7 | 3.5 | 0.00 | 1.88 | 1.87 | 77 | 1012.6 |
| 20260903222513 | 84 | 138 | 0.9 | 4.3 | 0.00 | 1.88 | 1.87 | 76 | 1012.6 |
| 20260903222014 | 84 | 84 | 0.9 | 3.5 | 0.00 | 1.88 | 1.87 | 76 | 1012.7 |
| 20260903221510 | 84 | 150 | 1.7 | 4.3 | 0.00 | 1.88 | 1.87 | 75 | 1012.7 |
| 20260903221010 | 84 | 94 | 0.9 | 3.5 | 0.00 | 1.88 | 1.87 | 76 | 1012.7 |
| 20260903220508 | 84 | 88 | 1.7 | 3.5 | 0.00 | 1.88 | 1.87 | 76 | 1012.8 |
| 20260903220008 | 83 | 171 | 0.9 | 6.1 | 0.00 | 2.06 | 1.87 | 76 | 1012.6 |
| 20260903215506 | 83 | 157 | 2.6 | 6.1 | 0.00 | 2.06 | 1.87 | 77 | 1012.7 |
| 20260903215006 | 83 | 40 | 0.9 | 4.3 | 0.00 | 2.06 | 1.87 | 77 | 1012.6 |
| 20260903214505 | 82 | 166 | 1.7 | 4.3 | 0.00 | 2.06 | 1.87 | 79 | 1012.7 |
| 20260903214005 | 82 | 205 | 3.5 | 4.3 | 0.01 | 2.06 | 1.87 | 79 | 1012.8 |
| 20260903213505 | 81 | 127 | 1.7 | 3.5 | 0.01 | 2.06 | 1.87 | 81 | 1012.8 |
| 20260903213004 | 80 | 259 | 0.0 | 3.5 | 0.01 | 2.06 | 1.87 | 84 | 1012.8 |
| 20260903212504 | 80 | 258 | 0.9 | 3.5 | 0.01 | 2.06 | 1.87 | 87 | 1012.9 |
| 20260903212006 | 79 | 269 | 0.0 | 3.5 | 0.01 | 2.06 | 1.87 | 87 | 1013.0 |
| 20260903211503 | 79 | 38 | 0.0 | 3.5 | 0.01 | 2.06 | 1.87 | 87 | 1013.2 |
| 20260903211003 | 79 | 233 | 0.0 | 3.5 | 0.01 | 2.06 | 1.87 | 87 | 1013.4 |
| 20260903210503 | 79 | 233 | 1.7 | 3.5 | 0.01 | 2.06 | 1.87 | 87 | 1013.6 |
| 20260903210003 | 79 | 35 | 1.7 | 3.5 | 0.01 | 3.25 | 1.87 | 87 | 1013.7 |
| 20260903205502 | 79 | 89 | 0.0 | 12.2 | 0.01 | 3.25 | 1.87 | 87 | 1013.7 |
| 20260903205005 | 79 | 144 | 4.3 | 14.8 | 0.01 | 3.25 | 1.87 | 86 | 1013.9 |
| 20260903204502 | 79 | 178 | 9.6 | 19.1 | 0.01 | 3.25 | 1.87 | 84 | 1014.4 |
| 20260903204004 | 82 | 184 | 11.3 | 17.4 | 0.01 | 3.24 | 1.86 | 81 | 1014.6 |
| 20260903203503 | 83 | 165 | 5.2 | 8.7 | 0.01 | 3.24 | 1.86 | 79 | 1014.6 |
| 20260903203003 | 83 | 153 | 3.5 | 7.8 | 0.01 | 3.24 | 1.86 | 79 | 1014.8 |
| 20260903202502 | 82 | 99 | 3.5 | 6.1 | 0.01 | 3.24 | 1.86 | 81 | 1014.5 |
| 20260903202100 | 82 | 94 | 1.7 | 5.2 | 0.01 | 3.24 | 1.86 | 82 | 1014.2 |
| 20260903201600 | 81 | 132 | 1.7 | 4.3 | 0.01 | 3.24 | 1.86 | 84 | 1014.0 |
| 20260903201100 | 80 | 254 | 1.7 | 4.3 | 0.01 | 3.24 | 1.86 | 86 | 1013.9 |
| 20260903200600 | 80 | 181 | 1.7 | 4.3 | 0.01 | 3.24 | 1.86 | 88 | 1013.9 |
| 20260903200108 | 79 | 344 | 2.6 | 4.3 | 0.01 | 4.36 | 1.86 | 88 | 1013.8 |
| 20260903195559 | 79 | 328 | 0.9 | 1.7 | 0.01 | 4.36 | 1.86 | 89 | 1014.0 |
| 20260903195102 | 79 | 329 | 0.0 | 3.5 | 0.02 | 4.36 | 1.86 | 89 | 1014.1 |
| 20260903194558 | 79 | 329 | 1.7 | 4.3 | 0.02 | 4.36 | 1.86 | 89 | 1014.2 |
| 20260903194057 | 78 | 327 | 2.6 | 4.3 | 0.01 | 4.34 | 1.85 | 90 | 1014.4 |
| 20260903193557 | 78 | 311 | 0.0 | 4.3 | 0.01 | 4.34 | 1.85 | 90 | 1014.4 |
| 20260903193103 | 78 | 311 | 1.7 | 4.3 | 0.01 | 4.34 | 1.85 | 90 | 1014.4 |
| 20260903192557 | 77 | 263 | 1.7 | 3.5 | 0.01 | 4.34 | 1.85 | 90 | 1014.7 |
| 20260903192055 | 77 | 261 | 0.9 | 5.2 | 0.02 | 4.34 | 1.85 | 90 | 1014.8 |
| 20260903191602 | 77 | 261 | 2.6 | 5.2 | 0.02 | 4.34 | 1.85 | 90 | 1014.8 |
| 20260903191054 | 77 | 273 | 1.7 | 7.8 | 0.04 | 4.34 | 1.85 | 90 | 1014.9 |
| 20260903190553 | 77 | 278 | 2.6 | 7.8 | 0.08 | 4.34 | 1.85 | 90 | 1014.8 |
| 20260903190053 | 77 | 260 | 1.7 | 4.3 | 0.15 | 4.34 | 1.85 | 90 | 1014.8 |
| 20260903185551 | 77 | 224 | 1.7 | 3.5 | 0.19 | 4.34 | 1.85 | 90 | 1015.0 |
| 20260903185052 | 76 | 342 | 0.9 | 5.2 | 0.28 | 4.34 | 1.84 | 90 | 1015.1 |
| 20260903184552 | 76 | 339 | 2.6 | 5.2 | 0.40 | 4.34 | 1.84 | 90 | 1015.3 |
| 20260903184048 | 76 | 355 | 2.6 | 5.2 | 0.43 | 4.34 | 1.84 | 90 | 1015.5 |
| 20260903183547 | 76 | 346 | 1.7 | 7.0 | 0.43 | 4.34 | 1.84 | 90 | 1015.5 |
| 20260903183107 | 76 | 355 | 2.6 | 7.8 | 0.43 | 4.34 | 1.84 | 90 | 1015.7 |
| 20260903182546 | 76 | 15 | 3.5 | 7.8 | 0.43 | 4.34 | 1.84 | 90 | 1015.9 |
| 20260903182045 | 76 | 335 | 3.5 | 7.0 | 0.42 | 4.33 | 1.83 | 90 | 1015.7 |
| 20260903181547 | 75 | 355 | 2.6 | 4.3 | 0.41 | 4.32 | 1.82 | 89 | 1016.1 |
| 20260903181044 | 75 | 295 | 0.9 | 5.2 | 0.40 | 4.30 | 1.81 | 90 | 1016.5 |
| 20260903180543 | 75 | 260 | 0.9 | 7.0 | 0.36 | 4.26 | 1.77 | 89 | 1016.9 |
| 20260903180042 | 76 | 200 | 4.3 | 13.9 | 0.28 | 4.20 | 1.70 | 88 | 1017.2 |
| 20260903175541 | 76 | 167 | 8.7 | 17.4 | 0.25 | 4.16 | 1.66 | 87 | 1017.5 |
| 20260903175044 | 78 | 192 | 11.3 | 27.8 | 0.12 | 4.03 | 1.53 | 87 | 1017.5 |
| 20260903174539 | 79 | 223 | 12.2 | 31.3 | 0.02 | 3.93 | 1.43 | 85 | 1017.1 |
| 20260903174037 | 81 | 178 | 19.1 | 31.3 | 0.00 | 3.91 | 1.41 | 81 | 1017.2 |
| 20260903173538 | 87 | 141 | 13.0 | 28.7 | 0.00 | 3.91 | 1.41 | 74 | 1016.8 |
| 20260903173037 | 88 | 146 | 4.3 | 7.8 | 0.00 | 3.91 | 1.41 | 75 | 1015.8 |
| 20260903172535 | 88 | 138 | 2.6 | 6.1 | 0.00 | 3.91 | 1.41 | 75 | 1015.5 |
| 20260903172033 | 88 | 89 | 3.5 | 6.1 | 0.00 | 3.91 | 1.41 | 74 | 1015.1 |
| 20260903171532 | 88 | 97 | 1.7 | 6.1 | 0.00 | 3.91 | 1.41 | 75 | 1015.0 |
| 20260903171031 | 88 | 123 | 1.7 | 7.0 | 0.00 | 3.91 | 1.41 | 76 | 1015.0 |
| 20260903170530 | 87 | 99 | 1.7 | 7.0 | 0.00 | 3.91 | 1.41 | 77 | 1015.0 |
| 20260903170029 | 86 | 55 | 2.6 | 6.1 | 0.00 | 3.91 | 1.41 | 78 | 1015.0 |
| 20260903165528 | 85 | 212 | 0.0 | 1.7 | 0.00 | 3.91 | 1.41 | 80 | 1014.8 |
| 20260903165027 | 84 | 212 | 0.0 | 1.7 | 0.00 | 3.91 | 1.41 | 81 | 1014.6 |
| 20260903164525 | 83 | 210 | 0.0 | 5.2 | 0.00 | 3.91 | 1.41 | 81 | 1014.6 |
| 20260903164024 | 83 | 210 | 1.7 | 5.2 | 0.00 | 3.91 | 1.41 | 80 | 1014.5 |
| 20260903163523 | 83 | 263 | 1.7 | 7.8 | 0.00 | 3.91 | 1.41 | 81 | 1014.4 |
| 20260903163022 | 83 | 225 | 5.2 | 9.6 | 0.00 | 3.91 | 1.41 | 79 | 1014.4 |
| 20260903162523 | 84 | 236 | 5.2 | 10.4 | 0.00 | 3.91 | 1.41 | 77 | 1014.4 |
| 20260903162023 | 85 | 279 | 7.0 | 10.4 | 0.00 | 3.91 | 1.41 | 75 | 1014.4 |
| 20260903161531 | 86 | 349 | 2.6 | 5.2 | 0.00 | 3.91 | 1.41 | 77 | 1014.5 |
| 20260903161020 | 86 | 20 | 2.6 | 5.2 | 0.00 | 3.91 | 1.41 | 77 | 1014.6 |
| 20260903160619 | 86 | 26 | 2.6 | 4.3 | 0.00 | 3.91 | 1.41 | 77 | 1014.6 |
| 20260903160021 | 85 | 355 | 0.9 | 4.3 | 0.00 | 3.91 | 1.41 | 78 | 1015.0 |
| 20260903155520 | 85 | 355 | 0.9 | 4.3 | 0.00 | 3.91 | 1.41 | 78 | 1015.0 |
| 20260903155015 | 85 | 34 | 0.9 | 4.3 | 0.00 | 3.91 | 1.41 | 77 | 1014.9 |
| 20260903154514 | 85 | 34 | 1.7 | 4.3 | 0.00 | 3.91 | 1.41 | 78 | 1015.0 |
| 20260903154016 | 85 | 51 | 1.7 | 5.2 | 0.00 | 3.91 | 1.41 | 78 | 1015.0 |
| 20260903153512 | 85 | 42 | 1.7 | 7.8 | 0.00 | 3.91 | 1.41 | 78 | 1015.0 |
| 20260903153012 | 84 | 48 | 3.5 | 8.7 | 0.00 | 3.91 | 1.41 | 78 | 1014.8 |
| 20260903152511 | 84 | 33 | 4.3 | 10.4 | 0.00 | 3.91 | 1.41 | 78 | 1014.6 |
| 20260903152011 | 84 | 36 | 6.1 | 10.4 | 0.00 | 3.91 | 1.41 | 78 | 1014.6 |
| 20260903151509 | 84 | 47 | 3.5 | 8.7 | 0.00 | 3.91 | 1.41 | 78 | 1014.7 |
| 20260903151009 | 84 | 65 | 3.5 | 8.7 | 0.00 | 3.91 | 1.41 | 78 | 1014.6 |
| 20260903150508 | 84 | 42 | 4.3 | 10.4 | 0.00 | 3.91 | 1.41 | 77 | 1014.6 |
| 20260903150009 | 84 | 55 | 4.3 | 11.3 | 0.00 | 3.91 | 1.41 | 77 | 1014.5 |
| 20260903145507 | 84 | 58 | 5.2 | 11.3 | 0.00 | 3.91 | 1.41 | 78 | 1014.3 |
| 20260903145006 | 84 | 65 | 5.2 | 11.3 | 0.00 | 3.91 | 1.41 | 78 | 1014.1 |
| 20260903144505 | 83 | 51 | 5.2 | 13.0 | 0.00 | 3.91 | 1.41 | 79 | 1014.1 |
| 20260903144003 | 83 | 67 | 7.8 | 13.0 | 0.00 | 3.91 | 1.41 | 79 | 1014.0 |
| 20260903143503 | 83 | 43 | 4.3 | 7.8 | 0.00 | 3.91 | 1.41 | 81 | 1013.9 |
| 20260903143000 | 83 | 74 | 2.6 | 7.8 | 0.00 | 3.91 | 1.41 | 81 | 1013.7 |
| 20260903142600 | 83 | 51 | 2.6 | 7.8 | 0.00 | 3.91 | 1.41 | 81 | 1013.6 |
| 20260903142057 | 83 | 44 | 2.6 | 7.0 | 0.00 | 3.91 | 1.41 | 81 | 1013.5 |
| 20260903141557 | 83 | 41 | 2.6 | 7.8 | 0.00 | 3.91 | 1.41 | 81 | 1013.4 |
| 20260903141055 | 83 | 26 | 2.6 | 7.8 | 0.00 | 3.91 | 1.41 | 81 | 1013.4 |
| 20260903140554 | 83 | 20 | 4.3 | 10.4 | 0.00 | 3.91 | 1.41 | 81 | 1013.2 |
| 20260903140053 | 83 | 19 | 5.2 | 10.4 | 0.00 | 3.91 | 1.41 | 81 | 1013.1 |
| 20260903135551 | 83 | 51 | 3.5 | 12.2 | 0.00 | 3.91 | 1.41 | 82 | 1013.1 |
| 20260903135051 | 82 | 69 | 5.2 | 12.2 | 0.00 | 3.91 | 1.41 | 82 | 1013.1 |
| 20260903134602 | 82 | 46 | 2.6 | 11.3 | 0.00 | 3.91 | 1.41 | 82 | 1013.1 |
| 20260903134051 | 82 | 33 | 4.3 | 12.2 | 0.00 | 3.91 | 1.41 | 83 | 1013.0 |
| 20260903133547 | 82 | 46 | 4.3 | 12.2 | 0.00 | 3.91 | 1.41 | 84 | 1012.9 |
| 20260903133051 | 81 | 53 | 5.2 | 10.4 | 0.00 | 3.91 | 1.41 | 84 | 1012.8 |
| 20260903132547 | 81 | 71 | 4.3 | 10.4 | 0.00 | 3.91 | 1.41 | 85 | 1012.7 |
| 20260903132046 | 81 | 42 | 5.2 | 11.3 | 0.00 | 3.91 | 1.41 | 85 | 1012.6 |
| 20260903131547 | 81 | 39 | 7.0 | 11.3 | 0.00 | 3.91 | 1.41 | 85 | 1012.6 |
| 20260903131047 | 81 | 33 | 6.1 | 11.3 | 0.00 | 3.91 | 1.41 | 85 | 1012.6 |
| 20260903130546 | 81 | 53 | 5.2 | 12.2 | 0.00 | 3.91 | 1.41 | 86 | 1012.6 |